• In Belgium
  • List of Countries
  • For 7 days
  • Water Temperature
  • Satellite Maps
  • Weather Map
  • Weather Widgets
  • user-avatar
    Login

    Hourly Weather Bajdabo

    Today, 14 August, Tuesday

    Time Temperature Precipitation Wind Pressure Humidity
    00:00 +23°C° 0 mm 7 mps 724 mmHg 75%
    01:00 +23°C° 0 mm 7 mps 724 mmHg 77%
    02:00 +22°C° 0 mm 7 mps 724 mmHg 80%
    03:00 +22°C° 0 mm 7 mps 724 mmHg 82%
    04:00 +22°C° 0 mm 7 mps 724 mmHg 83%
    05:00 +22°C° 0 mm 7 mps 724 mmHg 84%
    06:00 +21°C° 0 mm 7 mps 724 mmHg 85%
    07:00 +22°C° 0 mm 7 mps 724 mmHg 80%
    08:00 +23°C° 0 mm 7 mps 725 mmHg 75%
    09:00 +24°C° 0 mm 7 mps 725 mmHg 68%
    10:00 +27°C° 0 mm 7 mps 725 mmHg 63%
    11:00 +28°C° 0 mm 7 mps 725 mmHg 58%
    12:00 +29°C° 0 mm 7 mps 725 mmHg 53%
    13:00 +30°C° 0 mm 7 mps 724 mmHg 51%
    14:00 +31°C° 0 mm 8 mps 724 mmHg 49%
    15:00 +32°C° 0 mm 8 mps 723 mmHg 46%
    16:00 +31°C° 0.1 mm 8 mps 723 mmHg 49%
    17:00 +29°C° 0.1 mm 8 mps 723 mmHg 52%
    18:00 +29°C° 0.1 mm 8 mps 722 mmHg 54%
    19:00 +28°C° 0 mm 8 mps 723 mmHg 58%
    20:00 +27°C° 0 mm 8 mps 723 mmHg 62%
    21:00 +26°C° 0 mm 8 mps 724 mmHg 66%
    22:00 +26°C° 0 mm 8 mps 724 mmHg 69%
    23:00 +24°C° 0 mm 8 mps 724 mmHg 73%

    Tomorrow, 15 August, Wednesday

    Time Temperature Precipitation Wind Pressure Humidity
    00:00 +23°C° 0 mm 8 mps 724 mmHg 76%
    01:00 +23°C° 0 mm 8 mps 724 mmHg 77%
    02:00 +23°C° 0 mm 8 mps 724 mmHg 79%
    03:00 +23°C° 0 mm 8 mps 724 mmHg 80%
    04:00 +23°C° 0.1 mm 8 mps 724 mmHg 80%
    05:00 +23°C° 0.1 mm 8 mps 724 mmHg 80%
    06:00 +23°C° 0.1 mm 8 mps 724 mmHg 80%
    07:00 +23°C° 0.1 mm 8 mps 725 mmHg 77%
    08:00 +24°C° 0.1 mm 8 mps 725 mmHg 74%
    09:00 +24°C° 0.1 mm 8 mps 725 mmHg 71%
    10:00 +26°C° 0.1 mm 8 mps 725 mmHg 66%
    11:00 +27°C° 0.1 mm 8 mps 725 mmHg 61%
    12:00 +29°C° 0.1 mm 7 mps 725 mmHg 56%
    13:00 +29°C° 0.2 mm 7 mps 724 mmHg 54%
    14:00 +29°C° 0.2 mm 7 mps 723 mmHg 53%
    15:00 +30°C° 0.2 mm 7 mps 723 mmHg 51%
    16:00 +29°C° 0.3 mm 7 mps 723 mmHg 53%
    17:00 +29°C° 0.3 mm 7 mps 723 mmHg 56%
    18:00 +28°C° 0.3 mm 7 mps 722 mmHg 59%
    19:00 +27°C° 0.3 mm 7 mps 723 mmHg 62%
    20:00 +26°C° 0.3 mm 8 mps 724 mmHg 65%
    21:00 +26°C° 0.3 mm 8 mps 724 mmHg 68%
    22:00 +24°C° 0 mm 8 mps 725 mmHg 70%
    23:00 +24°C° 0 mm 7 mps 725 mmHg 73%

    Day after tomorrow, 16 August, Thursday

    Time Temperature Precipitation Wind Pressure Humidity
    00:00 +23°C° 0 mm 7 mps 725 mmHg 75%
    01:00 +23°C° 0 mm 7 mps 725 mmHg 77%
    02:00 +22°C° 0 mm 7 mps 724 mmHg 79%
    03:00 +22°C° 0 mm 6 mps 724 mmHg 81%
    04:00 +22°C° 0 mm 6 mps 724 mmHg 82%
    05:00 +22°C° 0 mm 6 mps 724 mmHg 82%
    06:00 +21°C° 0 mm 5 mps 724 mmHg 83%
    07:00 +23°C° 0 mm 6 mps 725 mmHg 77%
    08:00 +24°C° 0 mm 7 mps 725 mmHg 70%
    09:00 +26°C° 0 mm 7 mps 726 mmHg 64%
    10:00 +27°C° 0 mm 7 mps 726 mmHg 60%
    11:00 +28°C° 0 mm 7 mps 725 mmHg 57%
    12:00 +29°C° 0 mm 7 mps 725 mmHg 53%
    13:00 +29°C° 0.1 mm 7 mps 724 mmHg 53%
    14:00 +29°C° 0.1 mm 7 mps 723 mmHg 52%
    15:00 +29°C° 0.1 mm 7 mps 723 mmHg 52%
    16:00 +28°C° 0.1 mm 7 mps 723 mmHg 54%
    17:00 +28°C° 0.1 mm 7 mps 722 mmHg 57%
    18:00 +27°C° 0.1 mm 7 mps 722 mmHg 59%
    19:00 +27°C° 0 mm 6 mps 723 mmHg 61%
    20:00 +26°C° 0 mm 6 mps 723 mmHg 63%
    21:00 +26°C° 0 mm 6 mps 724 mmHg 65%
    22:00 +24°C° 0 mm 6 mps 724 mmHg 68%
    23:00 +24°C° 0 mm 6 mps 724 mmHg 72%

    17 August, Friday

    Time Temperature Precipitation Wind Pressure Humidity
    00:00 +23°C° 0 mm 6 mps 724 mmHg 75%
    01:00 +23°C° 0 mm 6 mps 724 mmHg 78%
    02:00 +22°C° 0 mm 6 mps 723 mmHg 80%
    03:00 +22°C° 0 mm 6 mps 723 mmHg 82%
    04:00 +22°C° 0 mm 6 mps 723 mmHg 83%
    05:00 +22°C° 0 mm 5 mps 724 mmHg 84%
    06:00 +21°C° 0 mm 5 mps 724 mmHg 85%
    07:00 +23°C° 0 mm 6 mps 724 mmHg 78%
    08:00 +24°C° 0 mm 7 mps 725 mmHg 71%
    09:00 +26°C° 0 mm 7 mps 725 mmHg 64%
    10:00 +27°C° 0 mm 7 mps 725 mmHg 59%
    11:00 +29°C° 0 mm 7 mps 725 mmHg 53%
    12:00 +30°C° 0 mm 7 mps 724 mmHg 48%
    13:00 +30°C° 0 mm 7 mps 723 mmHg 47%
    14:00 +30°C° 0 mm 7 mps 722 mmHg 46%
    15:00 +30°C° 0 mm 7 mps 722 mmHg 46%
    16:00 +30°C° 0 mm 7 mps 722 mmHg 46%
    17:00 +29°C° 0 mm 7 mps 722 mmHg 47%
    18:00 +29°C° 0 mm 7 mps 721 mmHg 48%
    19:00 +28°C° 0 mm 7 mps 722 mmHg 51%
    20:00 +27°C° 0 mm 7 mps 722 mmHg 53%
    21:00 +27°C° 0 mm 7 mps 723 mmHg 55%
    22:00 +26°C° 0 mm 7 mps 723 mmHg 61%
    23:00 +24°C° 0 mm 7 mps 723 mmHg 67%

    18 August, Saturday

    Time Temperature Precipitation Wind Pressure Humidity
    00:00 +23°C° 0 mm 7 mps 723 mmHg 72%
    01:00 +23°C° 0 mm 7 mps 722 mmHg 75%
    02:00 +22°C° 0 mm 7 mps 722 mmHg 78%
    03:00 +22°C° 0 mm 6 mps 722 mmHg 81%
    04:00 +22°C° 0 mm 6 mps 722 mmHg 82%
    05:00 +22°C° 0 mm 6 mps 723 mmHg 83%
    06:00 +22°C° 0 mm 5 mps 723 mmHg 83%
    07:00 +23°C° 0 mm 6 mps 724 mmHg 78%
    08:00 +24°C° 0 mm 7 mps 724 mmHg 73%
    09:00 +26°C° 0 mm 7 mps 725 mmHg 67%
    10:00 +27°C° 0 mm 7 mps 724 mmHg 63%
    11:00 +28°C° 0 mm 7 mps 724 mmHg 58%
    12:00 +29°C° 0 mm 8 mps 723 mmHg 53%
    13:00 +29°C° 0.1 mm 8 mps 722 mmHg 52%
    14:00 +29°C° 0.1 mm 7 mps 722 mmHg 51%
    15:00 +30°C° 0.1 mm 7 mps 721 mmHg 50%
    16:00 +29°C° 0.2 mm 8 mps 721 mmHg 53%
    17:00 +29°C° 0.2 mm 8 mps 721 mmHg 55%
    18:00 +28°C° 0.2 mm 8 mps 721 mmHg 57%
    19:00 +27°C° 0 mm 8 mps 722 mmHg 59%
    20:00 +27°C° 0 mm 7 mps 722 mmHg 62%
    21:00 +26°C° 0 mm 7 mps 723 mmHg 64%
    22:00 +24°C° 0 mm 7 mps 723 mmHg 67%
    23:00 +24°C° 0 mm 7 mps 723 mmHg 70%

    19 August, Sunday

    Time Temperature Precipitation Wind Pressure Humidity
    00:00 +23°C° 0 mm 6 mps 723 mmHg 73%
    01:00 +23°C° 0 mm 6 mps 722 mmHg 75%
    02:00 +22°C° 0 mm 6 mps 722 mmHg 78%
    03:00 +22°C° 0 mm 6 mps 722 mmHg 81%
    04:00 +22°C° 0 mm 6 mps 722 mmHg 81%
    05:00 +22°C° 0 mm 5 mps 723 mmHg 82%
    06:00 +22°C° 0 mm 5 mps 723 mmHg 83%
    07:00 +23°C° 0 mm 6 mps 724 mmHg 76%
    08:00 +24°C° 0 mm 7 mps 724 mmHg 70%
    09:00 +27°C° 0 mm 7 mps 725 mmHg 63%
    10:00 +28°C° 0 mm 8 mps 724 mmHg 58%
    11:00 +29°C° 0 mm 8 mps 723 mmHg 54%
    12:00 +31°C° 0 mm 8 mps 723 mmHg 49%
    13:00 +31°C° 0 mm 8 mps 722 mmHg 49%
    14:00 +32°C° 0 mm 8 mps 721 mmHg 48%
    15:00 +32°C° 0 mm 8 mps 721 mmHg 48%
    16:00 +31°C° 0 mm 8 mps 721 mmHg 50%
    17:00 +31°C° 0 mm 8 mps 721 mmHg 52%
    18:00 +29°C° 0 mm 8 mps 721 mmHg 54%
    19:00 +28°C° 0.1 mm 8 mps 722 mmHg 59%
    20:00 +27°C° 0.1 mm 8 mps 722 mmHg 63%
    21:00 +26°C° 0.1 mm 8 mps 723 mmHg 67%
    22:00 +26°C° 0 mm 8 mps 723 mmHg 70%
    23:00 +24°C° 0 mm 7 mps 723 mmHg 73%
    Show more